Regional Weather Roundup
Issued by NWS Sterling, VA

Home | Current Version | Previous Version | Text Only | Print | Product List | Glossary Off
Versions: 1 2 3 4 5 6 7 8 9 10 11 12 13 14 15 16 17 18 19 20 21 22 23 24 25 26 27 28 29 30 31 32 33 34 35 36 37 38 39 40 41 42 43 44 45 46 47 48 49 50

981
ASUS41 KLWX 100310
RWRLWX

REGIONAL WEATHER ROUNDUP
NATIONAL WEATHER SERVICE BALTIMORE MD/WASHINGTON DC
1000 PM EST TUE FEB 09 2016

Note: "FAIR" indicates few or no clouds below 12,000 feet
with no significant weather and/or obstructions to visibility.
 TC=TEMPERATURE CELSIUS

 * =Non NWS site. Station does not report precipitation (e.g. rain,
    snow, etc.), thunder, or fog.

DCZ001-MDZ009-015-VAZ040>042-051-053>054-100400-
WASHINGTON METRO

CITY           SKY/WX    TMP DP  RH WIND       PRES   REMARKS
WASHINGTON NAT MOCLDY    33  19  56 NW12      29.70R WCI  24
DULLES         MOCLDY    31  17  56 NW13G21   29.68R WCI  21
ANDREWS AFB    CLOUDY    33  21  61 W16       29.67R WCI  22
FT BELVOIR     CLOUDY    33  19  56 W7        29.70R
QUANTICO       CLOUDY    35  22  58 N6        29.72R
COLLEGE PARK*  FAIR      34  23  64 W8        29.68R WCI  27
LEESBURG*      CLOUDY    32  25  74 NW21G26   29.69R WCI  20
MANASSAS*      CLOUDY    34  21  60 NW8       29.70R WCI  27
GAITHERSBURG*  CLOUDY    30  19  64 NW12G20   29.70R WCI  21

$$

MDZ006>007-011-014-100400-
BALTIMORE METRO

CITY           SKY/WX    TMP DP  RH WIND       PRES   REMARKS
BWI AIRPORT    MOCLDY    32  24  72 W13G21    29.65S WCI  22
MD SCIENCE CTR   N/A     34  24  67 MISG      29.65R
ANNAPOLIS      CLOUDY    34  25  69 W8        29.67R WCI  27
FORT MEADE*    PTCLDY    32  27  80 NW9G16    29.69R WCI  24

$$

MDZ012-015-019>023-100400-
MARYLAND EASTERN SHORE

CITY           SKY/WX    TMP DP  RH WIND       PRES   REMARKS
OCEAN CITY     CLOUDY    35  33  92 NW6       29.65R
SALISBURY      CLOUDY    36  31  82 W6        29.65R
BAY BRIDGE AP*   N/A     34  27  75 NW14      29.67S WCI  24
CAMBRIDGE*     CLOUDY    34  28  80 W8        29.66S WCI  27
EASTON*        CLOUDY    35  30  83 NW9       29.69R WCI  27

$$

MDZ017>025-100400-
SOUTHERN MARYLAND

CITY           SKY/WX    TMP DP  RH WIND       PRES   REMARKS
PATUXENT RIVER FLURRIES  36  31  82 NW8       29.68R
ST INIGOES     CLOUDY    36  33  89 W6        29.67S
LEONARDTOWN*   CLOUDY    34  28  80 NW3       29.70R

$$

MDZ003>005-100400-
NORTH CENTRAL MARYLAND

CITY           SKY/WX    TMP DP  RH WIND       PRES   REMARKS
FREDERICK*     CLOUDY    30  27  86 W10       29.71S WCI  21
HAGERSTOWN APT CLOUDY    29  20  69 W7        29.67R
WESTMINSTER*   LGT SNOW  28  27  93 W8        29.63S WCI  20

$$

MDZ501>502-100400-
WESTERN MARYLAND

CITY           SKY/WX    TMP DP  RH WIND       PRES   REMARKS
OAKLAND*       CLOUDY    16  14  93 W15G22    29.59S FOG     WCI   1
CUMBERLAND*    CLOUDY    30  18  59 W13G23    29.74S WCI  20

$$

VAZ025>031-100400-
SHENANDOAH VALLEY

CITY           SKY/WX    TMP DP  RH WIND       PRES   REMARKS
WINCHESTER*    CLOUDY    30  19  64 W13G21    29.69R WCI  20
FRONT ROYAL*   CLOUDY    32  16  51 W7        29.69R
LURAY*         CLOUDY    30  14  51 SW16G22   29.70R WCI  19
NEW MARKET*    CLOUDY    29  13  50 W3        29.70R
STAUNTON*      CLOUDY    32  14  47 W14       29.72R WCI  22
WAYNESBORO*    CLOUDY    27  10  50 CALM      29.69S

$$

WVZ021-048>050-054>055-100400-
EASTERN WEST VIRGINIA PANHANDLE

CITY           SKY/WX    TMP DP  RH WIND       PRES   REMARKS
MARTINSBURG    FLURRIES  28  20  71 W12       29.69R WCI  18
PETERSBURG*    CLOUDY    28  13  55 CALM      29.74R

$$

VAZ036>039-050-100400-
CENTRAL FOOTHILLS

CITY           SKY/WX    TMP DP  RH WIND       PRES   REMARKS
CHARLOTTESVILL CLOUDY    33  14  45 NW8       29.68S WCI  26
CULPEPER*      CLOUDY    33  18  53 NW6       29.70R
ORANGE*        CLOUDY    34  30  86 CALM      29.70S
GORDONSVILLE*  CLOUDY    34  18  52 W5        29.68S
WARRENTON*     CLOUDY    34  24  68 NW7       29.68R

$$

VAZ055>057-100400-
NORTH AND CENTRAL PIEDMONT

CITY           SKY/WX    TMP DP  RH WIND       PRES   REMARKS
FREDERICKSBRG* DRIZZLE   33  33 100 CALM      29.70R
STAFFORD*      CLOUDY    33  25  73 N6        29.73S

$$

NCZ024-NYZ072-PAZ021-071-VAZ022-071-100400-
OTHER REGIONAL OBSERVATIONS

CITY           SKY/WX    TMP DP  RH WIND       PRES   REMARKS
NEW YORK CITY  CLOUDY    34  25  69 CALM      29.63F
PHILADELPHIA   LGT SNOW  34  30  85 CALM      29.63R FOG
PITTSBURGH     FLURRIES  25  20  81 SW10      29.68S WCI  15
ROANOKE        FAIR      24   9  52 W20G30    29.80R WCI  10
RICHMOND       MOCLDY    33  17  51 W13       29.71R WCI  24
RALEIGH        PTCLDY    32  11  41 W10G18    29.82R WCI  24

$$

ANZ530>537-100400-
MARINE OBSERVATIONS

STATION/POSITION TIME  TEMP    WIND        PRES
                       AIR SEA DIR/SP/G
                 (UTC) (F)     (DEG/KT/KT) (MB)
THOMAS PT LIGHT  0300   34 39  300/ 14/ 15 1005.3
BALT KEY BRIDGE  0200   34     290/ 13/ 15 1004.0R
COVE POINT       0200   36     330/  8/ 13 1005.3R
LEWISETTA        0200   34 41  300/  7/ 10 1004.9R
SOLOMONS ISLAND  0200   36 41  270/  6/  8   N/A
PINEY POINT      0200          280/ 10/ 11   N/A

$$





USA.gov is the U.S. government's official web portal to all federal, state and local government web resources and services.